sat.trackr.live / text

‹ back to catalog

KUIPER-00442

NORAD 68943 · 2026-098AA

PAYLOAD ACTIVE UNKNOWN

§ Identity

Operator
Country
US
Launch date
2026-04-30
Launch site
FRGUI
Launch vehicle
Mass (kg)
RCS (m²)

External: N2YO · Heavens-Above · Gunter

§ Orbital elements

Epoch: 2026-09-19T12:49:36.302016Z

Period
97.30 min
Inclination
51.9016°
Eccentricity
0.0000221
Mean motion
14.79952674 rev/d
Perigee alt
629.3 km
Apogee alt
629.6 km
Semi-major
7,007.6 km
B*
2.8049e-4
RAAN
353.4884°
Arg perigee
175.2847°
Mean anomaly
184.8118°
Rev number
2,155

§ Raw data

KUIPER-004421 68943U 26098AA  26262.53444794  .00001919  00000+0  28049-3 0  99982 68943  51.9016 353.4884 0000221 175.2847 184.8118 14.79952674 21556

JSON: /api/v1/satellites/68943 · /tle

For live sub-satellite position, see the globe view (requires WebGL).

§ Visibility from observer

Set your observer location to see the next 7 days of passes ≥ 10°. The values pass through the URL so the page stays shareable.

No JS? Fill the form by hand. The geolocation button needs JavaScript.